�N����,����,�g�[���i���ԁj���x,�g�[�����x,��g�[���i���ցj���x,����
 2003/06/01, 0:00,27.7,62,26.8,21.3
 2003/06/01, 0:15,27.6,61,26.7,21.5
 2003/06/01, 0:30,27.3,61,26.7,21.6
 2003/06/01, 0:45,26.9,62,26.6,21.8
 2003/06/01, 1:00,26.8,62,26.6,21.9
 2003/06/01, 1:15,26.7,62,26.5,22
 2003/06/01, 1:30,26.6,62,26.4,22.2
 2003/06/01, 1:45,26.5,61,26.3,22.3
 2003/06/01, 2:00,26.3,62,26.3,22.4
 2003/06/01, 2:15,26.3,61,26.2,22.5
 2003/06/01, 2:30,26.3,61,26.1,22.7
 2003/06/01, 2:45,26.1,61,26.1,22.8
 2003/06/01, 3:00,26,61,26.1,22.9
 2003/06/01, 3:15,25.9,62,26,23
 2003/06/01, 3:30,25.8,62,26,23.1
 2003/06/01, 3:45,25.6,62,25.9,23.2
 2003/06/01, 4:00,25.5,62,25.9,23.3
 2003/06/01, 4:15,25.6,62,25.8,23.4
 2003/06/01, 4:30,25.6,62,25.8,23.5
 2003/06/01, 4:45,25.6,62,25.7,23.6
 2003/06/01, 5:00,25.6,62,25.7,23.7
 2003/06/01, 5:15,25.6,63,25.6,23.7
 2003/06/01, 5:30,25.5,62,25.5,23.8
 2003/06/01, 5:45,25.4,62,25.5,23.9
 2003/06/01, 6:00,25.4,62,25.4,24
 2003/06/01, 6:15,25.3,61,25.3,24.1
 2003/06/01, 6:30,25.3,61,25.2,24.1
 2003/06/01, 6:45,25.3,61,25.2,23.9
 2003/06/01, 7:00,25.2,61,25.1,24
 2003/06/01, 7:15,25.2,60,25,24.1
 2003/06/01, 7:30,25.2,60,24.9,24.1
 2003/06/01, 7:45,25.2,59,24.8,24.2
 2003/06/01, 8:00,25.2,59,24.8,24.3
 2003/06/01, 8:15,25.5,59,24.7,24.3
 2003/06/01, 8:30,25.6,58,24.7,22
 2003/06/01, 8:45,25.5,59,24.7,20
 2003/06/01, 9:00,25.6,58,24.7,19.3
 2003/06/01, 9:15,25.3,57,24.9,19.5
 2003/06/01, 9:30,25.1,58,24.9,19.7
 2003/06/01, 9:45,24.8,59,24.8,18.9
 2003/06/01,10:00,25.3,58,24.7,19.1
 2003/06/01,10:15,25.6,58,24.7,19.3
 2003/06/01,10:30,25.8,57,24.7,19.4
 2003/06/01,10:45,26,57,24.7,19.6
 2003/06/01,11:00,26.1,57,24.8,19.7
 2003/06/01,11:15,26.2,56,24.8,19.8
 2003/06/01,11:30,26.2,56,24.8,20
 2003/06/01,11:45,26.1,57,24.8,20.2
 2003/06/01,12:00,26,57,24.8,20.3
 2003/06/01,12:15,25.9,58,24.8,20.8
 2003/06/01,12:30,25.7,58,24.8,20.9
 2003/06/01,12:45,25.7,59,24.8,20.1
 2003/06/01,13:00,25.8,58,24.7,20.2
 2003/06/01,13:15,25.9,58,24.7,20.6
 2003/06/01,13:30,25.9,58,24.7,19.3
 2003/06/01,13:45,26,58,24.8,19.4
 2003/06/01,14:00,26,58,24.8,19.5
 2003/06/01,14:15,26.1,58,24.8,19.7
 2003/06/01,14:30,26.1,57,24.8,20.3
 2003/06/01,14:45,26,55,24.7,19.7
 2003/06/01,15:00,25.7,55,24.7,19.9
 2003/06/01,15:15,25.5,54,24.6,20
 2003/06/01,15:30,25.3,54,24.6,20.1
 2003/06/01,15:45,25.2,55,24.6,20.3
 2003/06/01,16:00,25.3,55,24.6,20.4
 2003/06/01,16:15,25.4,56,24.6,20.6
 2003/06/01,16:30,25.3,56,24.6,20.7
 2003/06/01,16:45,25.4,56,24.6,20.9
 2003/06/01,17:00,25.4,55,24.6,21
 2003/06/01,17:15,25.4,55,24.5,21.1
 2003/06/01,17:30,25.7,55,24.5,19.5
 2003/06/01,17:45,25.8,56,24.5,19.7
 2003/06/01,18:00,25.9,56,24.4,19.8
 2003/06/01,18:15,25.8,56,24.4,20
 2003/06/01,18:30,25.7,56,24.3,20.2
 2003/06/01,18:45,25.7,57,24.3,20.3
 2003/06/01,19:00,25.7,59,24.2,19.6
 2003/06/01,19:15,25.9,59,24.1,19.8
 2003/06/01,19:30,25.9,58,24.1,19.9
 2003/06/01,19:45,25.8,56,24,20.1
 2003/06/01,20:00,25.9,58,24,19.3
 2003/06/01,20:15,25.9,58,23.9,19.4
 2003/06/01,20:30,25.8,58,23.9,19.6
 2003/06/01,20:45,25.8,58,23.8,19.7
 2003/06/01,21:00,25.7,58,23.8,19.8
 2003/06/01,21:15,25.8,58,23.7,20
 2003/06/01,21:30,25.9,54,23.7,20.1
 2003/06/01,21:45,25.9,55,23.7,20.3
 2003/06/01,22:00,25.9,54,23.6,19.2
 2003/06/01,22:15,25.6,56,23.6,17.4
 2003/06/01,22:30,25.2,55,23.6,17.6
 2003/06/01,22:45,24.9,55,23.6,17.8
 2003/06/01,23:00,25.1,57,23.7,18
 2003/06/01,23:15,24.8,57,23.7,18.2
 2003/06/01,23:30,24.7,57,23.7,18.4
 2003/06/01,23:45,24.7,57,23.7,18.5
 2003/06/02, 0:00,24.6,58,23.8,18.7
 2003/06/02, 0:15,24.5,58,23.8,18.8
 2003/06/02, 0:30,24.4,58,23.8,20.1
 2003/06/02, 0:45,24.4,58,23.7,20.2
 2003/06/02, 1:00,24.3,58,23.7,20.4
 2003/06/02, 1:15,24.1,57,23.7,20.5
 2003/06/02, 1:30,24,58,23.6,20.6
 2003/06/02, 1:45,23.9,58,23.6,20.8
 2003/06/02, 2:00,23.9,59,23.6,20.9
 2003/06/02, 2:15,23.8,59,23.5,21
 2003/06/02, 2:30,23.8,58,23.5,21.1
 2003/06/02, 2:45,23.7,58,23.4,21.2
 2003/06/02, 3:00,23.6,58,23.4,21.3
 2003/06/02, 3:15,23.5,58,23.3,21.4
 2003/06/02, 3:30,23.4,57,23.3,21.6
 2003/06/02, 3:45,23.4,58,23.2,21.7
 2003/06/02, 4:00,23.2,58,23.2,21.8
 2003/06/02, 4:15,23.1,58,23.2,21.9
 2003/06/02, 4:30,23.1,58,23.1,21.9
 2003/06/02, 4:45,23,58,23.1,22
 2003/06/02, 5:00,23,58,23,22.1
 2003/06/02, 5:15,22.9,58,23,22.2
 2003/06/02, 5:30,22.9,59,23,22.3
 2003/06/02, 5:45,22.9,61,22.9,22.4
 2003/06/02, 6:00,22.8,60,22.9,22.4
 2003/06/02, 6:15,23,61,22.8,22.2
 2003/06/02, 6:30,23.1,63,22.8,19.9
 2003/06/02, 6:45,23.2,63,22.8,18.3
 2003/06/02, 7:00,23.4,62,23.1,17.5
 2003/06/02, 7:15,23.4,61,23.2,17.1
 2003/06/02, 7:30,23.5,61,23.3,17.3
 2003/06/02, 7:45,23.6,61,23.3,17.4
 2003/06/02, 8:00,23.7,60,23.2,17.6
 2003/06/02, 8:15,23.7,59,23.1,17.7
 2003/06/02, 8:30,23.8,58,23.1,17.9
 2003/06/02, 8:45,23.8,57,23,18.1
 2003/06/02, 9:00,23.8,57,23,18.2
 2003/06/02, 9:15,23.8,56,23,18.3
 2003/06/02, 9:30,23.9,56,23.1,18.5
 2003/06/02, 9:45,24,56,23.1,18.6
 2003/06/02,10:00,24.1,55,23.1,18.8
 2003/06/02,10:15,24.2,54,23.2,18.9
 2003/06/02,10:30,24.3,54,23.2,19
 2003/06/02,10:45,24.4,54,23.3,19.1
 2003/06/02,11:00,24.5,54,23.3,19.3
 2003/06/02,11:15,24.5,54,23.4,19.4
 2003/06/02,11:30,24.6,54,23.4,19.5
 2003/06/02,11:45,24.7,53,23.5,19.6
 2003/06/02,12:00,24.8,53,23.6,19.8
 2003/06/02,12:15,24.9,53,23.6,19.9
 2003/06/02,12:30,24.9,53,23.7,20
 2003/06/02,12:45,24.9,53,23.7,20.1
 2003/06/02,13:00,25,52,23.8,20.3
 2003/06/02,13:15,25.1,52,23.8,20.4
 2003/06/02,13:30,25.2,52,23.9,20.5
 2003/06/02,13:45,25.3,51,24,20.6
 2003/06/02,14:00,25.4,51,24,20.7
 2003/06/02,14:15,25.5,51,24.1,20.9
 2003/06/02,14:30,25.6,50,24.2,21
 2003/06/02,14:45,25.7,50,24.3,21.1
 2003/06/02,15:00,25.8,49,24.4,21.2
 2003/06/02,15:15,25.9,49,24.5,21.3
 2003/06/02,15:30,26,50,24.6,21.4
 2003/06/02,15:45,26.1,50,24.6,21.5
 2003/06/02,16:00,26.2,50,24.7,21.7
 2003/06/02,16:15,26.3,50,24.8,21.8
 2003/06/02,16:30,26.4,50,24.9,21.9
 2003/06/02,16:45,26.5,51,25,22
 2003/06/02,17:00,26.5,51,25.1,22.1
 2003/06/02,17:15,26.5,45,25.3,22.2
 2003/06/02,17:30,26.6,44,25.3,22.3
 2003/06/02,17:45,26.6,42,25.3,22.4
 2003/06/02,18:00,26.7,41,25.3,22.5
 2003/06/02,18:15,26.5,41,25.3,22.6
 2003/06/02,18:30,26.4,43,25.3,22.7
 2003/06/02,18:45,26.4,43,25.2,21.1
 2003/06/02,19:00,26.1,41,25,21.2
 2003/06/02,19:15,25.8,39,24.9,21.3
 2003/06/02,19:30,26.1,40,24.9,21.5
 2003/06/02,19:45,26,40,24.7,20.3
 2003/06/02,20:00,25.9,39,24.6,20.4
 2003/06/02,20:15,25.7,39,24.6,20
 2003/06/02,20:30,25.7,39,24.6,20.1
 2003/06/02,20:45,25.3,38,24.7,20.3
 2003/06/02,21:00,25.3,36,24.6,19.3
 2003/06/02,21:15,25.5,37,24.5,19.5
 2003/06/02,21:30,25.3,35,24.2,19.6
 2003/06/02,21:45,25,33,24.1,19.7
 2003/06/02,22:00,25,34,24.1,19.8
 2003/06/02,22:15,24.4,34,24.1,20
 2003/06/02,22:30,24.8,32,24.1,20.1
 2003/06/02,22:45,24.1,34,24.1,20.3
 2003/06/02,23:00,23.9,36,24.1,20.4
 2003/06/02,23:15,23.8,38,24.2,19.2
 2003/06/02,23:30,23.8,34,24.1,18.5
 2003/06/02,23:45,23.2,37,24.1,18.7
 2003/06/03, 0:00,22.9,34,24,18.8
 2003/06/03, 0:15,23.4,35,24,18.9
 2003/06/03, 0:30,23,35,23.9,19.1
 2003/06/03, 0:45,22.9,36,23.9,19.2
 2003/06/03, 1:00,22.8,38,23.9,19.3
 2003/06/03, 1:15,22.6,40,23.8,19.5
 2003/06/03, 1:30,22.6,43,23.8,19.6
 2003/06/03, 1:45,22.9,43,23.6,19.7
 2003/06/03, 2:00,22.8,44,23.4,19.8
 2003/06/03, 2:15,23,44,23.1,20
 2003/06/03, 2:30,22.6,45,23,20.1
 2003/06/03, 2:45,22,47,23.1,20.2
 2003/06/03, 3:00,22,48,23.1,20.4
 2003/06/03, 3:15,22.1,48,23,20.5
 2003/06/03, 3:30,22,49,23.1,20.6
 2003/06/03, 3:45,21.6,48,23,20.7
 2003/06/03, 4:00,21.4,49,23,20.8
 2003/06/03, 4:15,21.7,49,23,20.9
 2003/06/03, 4:30,21.6,50,22.9,21
 2003/06/03, 4:45,21.6,49,22.8,21.2
 2003/06/03, 5:00,21.4,49,22.7,21.3
 2003/06/03, 5:15,21.4,50,22.7,21.4
 2003/06/03, 5:30,21.3,50,22.6,21.5
 2003/06/03, 5:45,21.7,49,22.5,21.6
 2003/06/03, 6:00,21.6,48,22.4,21.9
 2003/06/03, 6:15,21.6,49,22.5,21.2
 2003/06/03, 6:30,21.5,50,22.5,21.3
 2003/06/03, 6:45,21.7,50,22.6,21.4
 2003/06/03, 7:00,22.1,48,22.7,19.4
 2003/06/03, 7:15,22.2,47,22.7,19.5
 2003/06/03, 7:30,22.4,46,22.6,19.6
 2003/06/03, 7:45,22.7,47,22.7,19.1
 2003/06/03, 8:00,22.9,47,22.7,19.3
 2003/06/03, 8:15,23.1,46,22.5,18.5
 2003/06/03, 8:30,23.3,45,22.5,18.6
 2003/06/03, 8:45,23.4,45,22.6,18.7
 2003/06/03, 9:00,23.4,44,22.6,18.9
 2003/06/03, 9:15,23.6,44,22.7,19
 2003/06/03, 9:30,23.8,45,22.8,19.1
 2003/06/03, 9:45,23.9,43,22.9,19.2
 2003/06/03,10:00,24.1,43,23,19.3
 2003/06/03,10:15,24.2,43,23.2,19.4
 2003/06/03,10:30,24.2,41,23.2,19.5
 2003/06/03,10:45,24.4,41,23.3,19.6
 2003/06/03,11:00,24.4,40,23.4,19.7
 2003/06/03,11:15,24.4,37,23.4,19.8
 2003/06/03,11:30,24.5,39,23.5,19.9
 2003/06/03,11:45,24.6,38,23.5,20.1
 2003/06/03,12:00,24.7,38,23.6,20.2
 2003/06/03,12:15,24.8,39,23.7,20.3
 2003/06/03,12:30,25,38,23.8,20.4
 2003/06/03,12:45,25.1,38,23.9,20.6
 2003/06/03,13:00,25.2,36,24,20.7
 2003/06/03,13:15,25.3,38,24.1,20.8
 2003/06/03,13:30,25.4,37,24.2,20.9
 2003/06/03,13:45,25.5,35,24.2,21
 2003/06/03,14:00,25.6,35,24.3,21.1
 2003/06/03,14:15,25.7,36,24.4,21.2
 2003/06/03,14:30,25.8,36,24.5,21.3
 2003/06/03,14:45,26,35,24.6,21.4
 2003/06/03,15:00,26,35,24.7,21.6
 2003/06/03,15:15,26.1,34,24.8,21.7
 2003/06/03,15:30,26.3,34,24.9,21.8
 2003/06/03,15:45,26.4,35,25.1,21.9
 2003/06/03,16:00,26.5,37,25.3,22
 2003/06/03,16:15,26.6,38,25.5,22.1
 2003/06/03,16:30,26.8,37,25.6,22.2
 2003/06/03,16:45,27,36,25.7,22.3
 2003/06/03,17:00,27.1,36,25.8,22.4
 2003/06/03,17:15,27.2,37,25.9,22.5
 2003/06/03,17:30,27.2,38,26,23.1
 2003/06/03,17:45,27.3,37,26,23.1
 2003/06/03,18:00,27.3,37,26,23.2
 2003/06/03,18:15,26.6,34,25.9,23.3
 2003/06/03,18:30,26.6,34,25.8,23.4
 2003/06/03,18:45,26.4,34,25.7,23.4
 2003/06/03,19:00,26.4,36,25.7,21.7
 2003/06/03,19:15,26.5,37,25.6,21.9
 2003/06/03,19:30,26.4,36,25.4,20.8
 2003/06/03,19:45,26.4,35,25.1,21
 2003/06/03,20:00,26.2,35,24.9,19.6
 2003/06/03,20:15,26.1,35,24.8,19.8
 2003/06/03,20:30,26.1,35,24.8,19.9
 2003/06/03,20:45,25.8,35,24.8,20.1
 2003/06/03,21:00,25.9,36,24.8,20.3
 2003/06/03,21:15,25.8,36,24.9,20.4
 2003/06/03,21:30,25.4,34,24.9,20.6
 2003/06/03,21:45,25.5,35,24.9,20.7
 2003/06/03,22:00,25.6,36,24.9,20.9
 2003/06/03,22:15,25.3,35,24.9,20
 2003/06/03,22:30,25.4,36,24.9,20.2
 2003/06/03,22:45,26,37,24.9,20.4
 2003/06/03,23:00,26,38,25,20.5
 2003/06/03,23:15,26,38,25,20.7
 2003/06/03,23:30,26.1,39,25,20.8
 2003/06/03,23:45,26.1,40,25,20.9
 2003/06/04, 0:00,26.1,40,25,21.1
 2003/06/04, 0:15,26.1,41,25,21.2
 2003/06/04, 0:30,26.1,41,25,21.3
 2003/06/04, 0:45,26.1,41,25,21.5
 2003/06/04, 1:00,26.1,41,25,21.6
 2003/06/04, 1:15,26.1,42,25,21.7
 2003/06/04, 1:30,26,42,25,21.8
 2003/06/04, 1:45,26,43,25,21.9
 2003/06/04, 2:00,26,43,25,22
 2003/06/04, 2:15,25.9,43,24.9,22.2
 2003/06/04, 2:30,25.9,43,24.9,22.3
 2003/06/04, 2:45,25.9,43,24.9,22.4
 2003/06/04, 3:00,25.8,44,24.9,22.5
 2003/06/04, 3:15,25.8,44,24.9,22.6
 2003/06/04, 3:30,25.7,44,24.9,22.7
 2003/06/04, 3:45,25.6,45,24.8,22.8
 2003/06/04, 4:00,25.6,45,24.8,22.9
 2003/06/04, 4:15,25.5,45,24.8,23
 2003/06/04, 4:30,25.5,45,24.7,23
 2003/06/04, 4:45,25.4,45,24.7,23.2
 2003/06/04, 5:00,25.4,45,24.7,23.2
 2003/06/04, 5:15,25.3,45,24.6,23.3
 2003/06/04, 5:30,25.3,45,24.6,23.4
 2003/06/04, 5:45,25.3,47,24.6,23.5
 2003/06/04, 6:00,24.4,45,24.6,23.2
 2003/06/04, 6:15,23.8,47,24.5,23.2
 2003/06/04, 6:30,23.7,47,24.5,23.3
 2003/06/04, 6:45,23.5,47,24.4,23.4
 2003/06/04, 7:00,23.5,48,24.6,20.3
 2003/06/04, 7:15,23.6,48,24.5,20.5
 2003/06/04, 7:30,23.4,49,24.4,19.6
 2003/06/04, 7:45,23.6,50,24.4,19.7
 2003/06/04, 8:00,23.7,51,24.4,19.9
 2003/06/04, 8:15,23.8,51,24.4,20
 2003/06/04, 8:30,24.4,51,24.4,20.2
 2003/06/04, 8:45,24.8,52,24.4,20.3
 2003/06/04, 9:00,24.8,52,24.3,20.5
 2003/06/04, 9:15,25,52,24.3,20.6
 2003/06/04, 9:30,25.1,51,24.3,20.8
 2003/06/04, 9:45,25.3,51,24.3,20.9
 2003/06/04,10:00,25.3,51,24.4,21
 2003/06/04,10:15,25.3,51,24.4,21.1
 2003/06/04,10:30,25.3,52,24.4,21.3
 2003/06/04,10:45,25.4,52,24.4,21.4
 2003/06/04,11:00,25.4,52,24.4,21.5
 2003/06/04,11:15,25.4,52,24.4,21.6
 2003/06/04,11:30,25.4,52,24.4,21.8
 2003/06/04,11:45,25.5,52,24.5,21.9
 2003/06/04,12:00,25.5,52,24.5,22
 2003/06/04,12:15,25.5,52,24.5,22.1
 2003/06/04,12:30,25.5,52,24.5,22.2
 2003/06/04,12:45,25.5,52,24.5,22.3
 2003/06/04,13:00,25.5,52,24.5,22.4
 2003/06/04,13:15,25.5,52,24.5,22.5
 2003/06/04,13:30,25.4,52,24.6,22.6
 2003/06/04,13:45,25.5,52,24.6,22.6
 2003/06/04,14:00,25.5,52,24.6,22.7
 2003/06/04,14:15,25.5,52,24.6,22.8
 2003/06/04,14:30,25.5,51,24.6,22.9
 2003/06/04,14:45,25.5,51,24.6,23
 2003/06/04,15:00,25.5,51,24.6,23.1
 2003/06/04,15:15,25.5,51,24.6,23.2
 2003/06/04,15:30,25.7,50,24.6,23.2
 2003/06/04,15:45,25.8,50,24.7,23.2
 2003/06/04,16:00,25.8,50,24.7,23.3
 2003/06/04,16:15,25.8,50,24.8,23.3
 2003/06/04,16:30,25.9,50,24.8,23.4
 2003/06/04,16:45,25.8,50,24.9,23.5
 2003/06/04,17:00,25.9,50,25,23.6
 2003/06/04,17:15,25.9,50,25,23.6
 2003/06/04,17:30,24.7,49,25,23.7
 2003/06/04,17:45,24.3,50,24.9,23.8
 2003/06/04,18:00,24.9,49,24.9,23.8
 2003/06/04,18:15,25.3,49,24.9,22.5
 2003/06/04,18:30,25.3,49,24.9,22.1
 2003/06/04,18:45,23.7,51,24.8,22.2
 2003/06/04,19:00,24.6,50,24.8,22.4
 2003/06/04,19:15,24.6,51,24.8,22.5
 2003/06/04,19:30,24.7,50,24.8,22.6
 2003/06/04,19:45,24.6,50,24.8,22.7
 2003/06/04,20:00,24.7,49,24.7,22.8
 2003/06/04,20:15,24.5,50,24.7,22.9
 2003/06/04,20:30,24.5,50,24.7,21.7
 2003/06/04,20:45,24.5,49,24.7,20.2
 2003/06/04,21:00,23.8,51,24.6,20.3
 2003/06/04,21:15,23.4,52,24.6,20.5
 2003/06/04,21:30,23,53,24.5,18.9
 2003/06/04,21:45,22.7,54,24.4,19
 2003/06/04,22:00,22.6,54,24.3,19.1
 2003/06/04,22:15,22.6,54,24.3,19.3
 2003/06/04,22:30,22.8,54,24.3,19.4
 2003/06/04,22:45,23.5,52,24,19.5
 2003/06/04,23:00,23.5,52,23.9,20.2
 2003/06/04,23:15,23.9,52,24,20.4
 2003/06/04,23:30,24.1,52,24,20.5
 2003/06/04,23:45,24.2,52,24,20.6
 2003/06/05, 0:00,24.2,52,24,20.7
 2003/06/05, 0:15,24.2,52,24,20.8
 2003/06/05, 0:30,24.2,52,24,20.9
 2003/06/05, 0:45,24.2,52,24,21.1
 2003/06/05, 1:00,24.2,52,24,21.2
 2003/06/05, 1:15,24.2,53,24,21.3
 2003/06/05, 1:30,24.2,53,23.9,21.4
 2003/06/05, 1:45,24.1,53,23.9,21.5
 2003/06/05, 2:00,24.1,53,23.9,21.6
 2003/06/05, 2:15,24.1,53,23.9,21.7
 2003/06/05, 2:30,24,53,23.9,21.8
 2003/06/05, 2:45,24,53,23.9,21.9
 2003/06/05, 3:00,24,53,23.8,22
 2003/06/05, 3:15,23.9,54,23.8,22.1
 2003/06/05, 3:30,23.9,54,23.8,22.2
 2003/06/05, 3:45,23.8,54,23.8,22.3
 2003/06/05, 4:00,23.8,54,23.7,22.4
 2003/06/05, 4:15,23.7,54,23.7,22.5
 2003/06/05, 4:30,23.7,54,23.7,22.5
 2003/06/05, 4:45,23.7,54,23.6,22.6
 2003/06/05, 5:00,23.6,54,23.6,22.7
 2003/06/05, 5:15,23.6,54,23.6,22.8
 2003/06/05, 5:30,23.6,55,23.6,22.8
 2003/06/05, 5:45,23.6,56,23.5,22.9
 2003/06/05, 6:00,23.4,55,23.5,22.6
 2003/06/05, 6:15,22.6,57,23.5,22.6
 2003/06/05, 6:30,22.4,58,23.5,22.7
 2003/06/05, 6:45,22.6,59,23.5,22.8
 2003/06/05, 7:00,22.7,58,23.4,20.1
 2003/06/05, 7:15,23.1,57,23.5,20.2
 2003/06/05, 7:30,23.3,56,23.4,20.4
 2003/06/05, 7:45,23.3,55,23.4,19.2
 2003/06/05, 8:00,23.7,54,23.4,19.3
 2003/06/05, 8:15,23.8,54,23.5,19.1
 2003/06/05, 8:30,23.9,54,23.5,19.2
 2003/06/05, 8:45,24,54,23.5,19.3
 2003/06/05, 9:00,24,54,23.6,19.4
 2003/06/05, 9:15,24.2,54,23.6,19.5
 2003/06/05, 9:30,24.2,53,23.6,19.6
 2003/06/05, 9:45,24.3,52,23.6,19.8
 2003/06/05,10:00,24.4,52,23.7,19.9
 2003/06/05,10:15,24.6,52,23.8,20
 2003/06/05,10:30,24.6,51,23.8,20.1
 2003/06/05,10:45,24.8,51,23.9,20.3
 2003/06/05,11:00,24.9,49,24,20.4
 2003/06/05,11:15,25,51,24.1,20.5
 2003/06/05,11:30,25.1,50,24.2,20.6
 2003/06/05,11:45,25.2,50,24.2,20.8
 2003/06/05,12:00,25.3,49,24.3,20.9
 2003/06/05,12:15,25.4,50,24.4,21
 2003/06/05,12:30,25.5,50,24.5,21.1
 2003/06/05,12:45,25.6,49,24.6,21.2
 2003/06/05,13:00,25.7,49,24.6,21.4
 2003/06/05,13:15,25.8,49,24.7,21.5
 2003/06/05,13:30,25.9,49,24.8,21.6
 2003/06/05,13:45,26,49,24.9,21.7
 2003/06/05,14:00,26.1,49,25,21.8
 2003/06/05,14:15,26.2,47,25.1,21.9
 2003/06/05,14:30,26.3,47,25.2,22
 2003/06/05,14:45,26.4,47,25.3,22.1
 2003/06/05,15:00,26.5,48,25.4,22.2
 2003/06/05,15:15,26.6,48,25.6,22.3
 2003/06/05,15:30,26.8,48,25.7,22.4
 2003/06/05,15:45,26.8,48,25.8,22.5
 2003/06/05,16:00,26.9,47,26,22.6
 2003/06/05,16:15,27.1,46,26.1,22.7
 2003/06/05,16:30,27.1,44,26.2,22.8
 2003/06/05,16:45,27.2,45,26.3,22.9
 2003/06/05,17:00,27.2,45,26.4,23
 2003/06/05,17:15,27.3,46,26.5,23.1
 2003/06/05,17:30,27.3,45,26.5,23.2
 2003/06/05,17:45,27.1,42,26.5,23.3
 2003/06/05,18:00,27.2,42,26.5,23.3
 2003/06/05,18:15,27.1,39,26.4,20.2
 2003/06/05,18:30,27.1,42,26.4,20.5
 2003/06/05,18:45,26.9,43,26.3,20.7
 2003/06/05,19:00,26.9,42,26,20.9
 2003/06/05,19:15,26.8,43,25.8,21
 2003/06/05,19:30,26.6,43,25.6,21.2
 2003/06/05,19:45,26.6,42,25.4,20.5
 2003/06/05,20:00,26.6,42,25.3,20.6
 2003/06/05,20:15,26.5,43,25.2,20.8
 2003/06/05,20:30,26.6,45,25.3,19.4
 2003/06/05,20:45,26.8,46,25.5,19.6
 2003/06/05,21:00,26.9,46,25.6,19.2
 2003/06/05,21:15,27,46,25.7,18.6
 2003/06/05,21:30,27,46,25.7,18.8
 2003/06/05,21:45,27.1,47,25.7,18.9
 2003/06/05,22:00,27.1,46,25.8,19.1
 2003/06/05,22:15,26.9,46,25.8,19.3
 2003/06/05,22:30,26.9,46,25.8,19.4
 2003/06/05,22:45,26.8,46,25.9,19.5
 2003/06/05,23:00,26.7,45,25.9,19.7
 2003/06/05,23:15,26.8,47,25.8,20.2
 2003/06/05,23:30,26.7,47,25.8,20.3
 2003/06/05,23:45,26.7,47,25.8,20.5
 2003/06/06, 0:00,26.6,48,25.8,20.6
 2003/06/06, 0:15,26.6,48,25.8,20.8
 2003/06/06, 0:30,26.6,48,25.7,21
 2003/06/06, 0:45,26.5,48,25.7,21.2
 2003/06/06, 1:00,26.4,48,25.7,21.3
 2003/06/06, 1:15,26.4,48,25.7,21.4
 2003/06/06, 1:30,26.4,48,25.6,21.6
 2003/06/06, 1:45,26.3,48,25.6,21.7
 2003/06/06, 2:00,26.3,48,25.5,21.8
 2003/06/06, 2:15,26.2,48,25.5,21.9
 2003/06/06, 2:30,26.1,48,25.5,22.1
 2003/06/06, 2:45,26,48,25.4,22.2
 2003/06/06, 3:00,26,49,25.4,22.3
 2003/06/06, 3:15,26,48,25.3,22.4
 2003/06/06, 3:30,25.9,48,25.3,22.5
 2003/06/06, 3:45,25.8,49,25.3,22.6
 2003/06/06, 4:00,25.7,48,25.2,22.7
 2003/06/06, 4:15,25.7,48,25.2,22.8
 2003/06/06, 4:30,25.6,48,25.1,22.9
 2003/06/06, 4:45,25.5,48,25.1,23
 2003/06/06, 5:00,25.4,48,25,23.2
 2003/06/06, 5:15,25.4,48,25,23.3
 2003/06/06, 5:30,25.4,48,24.9,23.4
 2003/06/06, 5:45,25.4,48,24.9,23.5
 2003/06/06, 6:00,25.4,49,24.9,23.6
 2003/06/06, 6:15,25.5,49,24.9,23.6
 2003/06/06, 6:30,23.8,48,24.8,23.7
 2003/06/06, 6:45,23.6,49,24.8,18.5
 2003/06/06, 7:00,23.7,49,24.8,18.8
 2003/06/06, 7:15,23.8,50,24.8,19
 2003/06/06, 7:30,24.1,50,24.7,19.2
 2003/06/06, 7:45,24.4,50,24.7,19.4
 2003/06/06, 8:00,24.5,50,24.7,19.5
 2003/06/06, 8:15,25,49,24.7,18.7
 2003/06/06, 8:30,25.3,50,24.8,18.9
 2003/06/06, 8:45,25.4,49,24.8,19
 2003/06/06, 9:00,25.6,49,24.8,19.2
 2003/06/06, 9:15,25.7,50,24.9,19.3
 2003/06/06, 9:30,25.8,50,24.9,19.5
 2003/06/06, 9:45,25.9,50,25,19.6
 2003/06/06,10:00,26,50,25,19.8
 2003/06/06,10:15,26.1,50,25.1,19.9
 2003/06/06,10:30,26.2,50,25.2,20
 2003/06/06,10:45,26.3,50,25.3,20.2
 2003/06/06,11:00,26.4,50,25.4,20.3
 2003/06/06,11:15,26.5,50,25.5,20.5
 2003/06/06,11:30,26.6,49,25.6,20.6
 2003/06/06,11:45,26.7,49,25.7,20.8
 2003/06/06,12:00,26.8,49,25.7,20.9
 2003/06/06,12:15,26.8,49,25.8,21.1
 2003/06/06,12:30,26.9,49,25.9,21.2
 2003/06/06,12:45,27,48,26,21.3
 2003/06/06,13:00,27.1,49,26.1,21.5
 2003/06/06,13:15,27.2,48,26.1,21.6
 2003/06/06,13:30,27.3,48,26.2,22.7
 2003/06/06,13:45,27.4,48,26.3,22.8
 2003/06/06,14:00,27.5,48,26.4,22.9
 2003/06/06,14:15,27.6,48,26.5,23
 2003/06/06,14:30,27.7,48,26.6,23
 2003/06/06,14:45,27.7,48,26.7,23.2
 2003/06/06,15:00,27.8,48,26.8,23.2
 2003/06/06,15:15,28,48,26.9,23.3
 2003/06/06,15:30,28.1,48,27,23.4
 2003/06/06,15:45,28.3,46,27.1,23.5
 2003/06/06,16:00,28.4,39,27.2,23.6
 2003/06/06,16:15,28.4,38,27.2,23.7
 2003/06/06,16:30,28.2,37,27.2,23.8
 2003/06/06,16:45,28.1,37,27.2,23.9
 2003/06/06,17:00,28.1,38,27.2,23.1
 2003/06/06,17:15,28.1,38,27.3,21.5
 2003/06/06,17:30,28,37,27.2,21.7
 2003/06/06,17:45,27.9,36,27.1,21.9
 2003/06/06,18:00,27.7,38,27.1,22
 2003/06/06,18:15,27.7,39,27,22.2
 2003/06/06,18:30,27.7,43,27,22.3
 2003/06/06,18:45,27.7,46,27,22.5
 2003/06/06,19:00,27.8,49,27,22.6
 2003/06/06,19:15,27.5,50,26.9,22.7
 2003/06/06,19:30,27.3,52,26.9,22.8
 2003/06/06,19:45,27.5,52,26.9,19.9
 2003/06/06,20:00,27.6,52,26.9,20.1
 2003/06/06,20:15,27.7,52,27,20.3
 2003/06/06,20:30,27.4,53,26.9,20.5
 2003/06/06,20:45,27,54,26.9,20.8
 2003/06/06,21:00,27.2,53,27,20.2
 2003/06/06,21:15,27.2,54,27,20.4
 2003/06/06,21:30,27.2,54,27,20.6
 2003/06/06,21:45,27.2,54,27,20.8
 2003/06/06,22:00,27,55,27,20.7
 2003/06/06,22:15,26.8,55,27,20.7
 2003/06/06,22:30,26.8,56,27,20.9
 2003/06/06,22:45,26.6,56,27,21.1
 2003/06/06,23:00,26.7,56,26.9,21.2
 2003/06/06,23:15,26.5,57,26.9,21.4
 2003/06/06,23:30,26.3,58,26.9,20.6
 2003/06/06,23:45,26.4,57,26.8,20.3
 2003/06/07, 0:00,26.2,57,26.8,20.5
 2003/06/07, 0:15,25.9,59,26.7,20.7
 2003/06/07, 0:30,26,58,26.6,20.9
 2003/06/07, 0:45,25.9,58,26.6,21
 2003/06/07, 1:00,25.7,58,26.5,21.2
 2003/06/07, 1:15,25.9,58,26.4,21
 2003/06/07, 1:30,25.8,57,26.3,18.7
 2003/06/07, 1:45,25.7,57,26,18.8
 2003/06/07, 2:00,25.5,58,25.8,19
 2003/06/07, 2:15,25.1,59,25.8,19.2
 2003/06/07, 2:30,25.2,58,25.8,19.4
 2003/06/07, 2:45,25.1,59,25.7,19.5
 2003/06/07, 3:00,25.1,58,25.6,19.7
 2003/06/07, 3:15,25.1,58,25.5,19.8
 2003/06/07, 3:30,24.9,58,25.5,20
 2003/06/07, 3:45,24.8,59,25.4,20.2
 2003/06/07, 4:00,24.8,58,25.3,20.3
 2003/06/07, 4:15,24.8,58,25,20.5
 2003/06/07, 4:30,24.7,58,24.9,20.7
 2003/06/07, 4:45,24.5,58,24.7,20.8
 2003/06/07, 5:00,24.5,58,24.7,21
 2003/06/07, 5:15,24.4,59,24.6,21.1
 2003/06/07, 5:30,24.2,60,24.6,21.7
 2003/06/07, 5:45,24.1,60,24.7,21.8
 2003/06/07, 6:00,24.1,61,24.8,21.9
 2003/06/07, 6:15,24,61,24.8,22
 2003/06/07, 6:30,24,61,24.8,22.1
 2003/06/07, 6:45,24,61,24.9,22.2
 2003/06/07, 7:00,24.1,60,24.9,22.3
 2003/06/07, 7:15,24.2,61,24.9,22.4
 2003/06/07, 7:30,24.2,60,24.9,22.5
 2003/06/07, 7:45,24.4,60,24.9,22.6
 2003/06/07, 8:00,24.4,60,24.9,22.7
 2003/06/07, 8:15,24.5,60,25,22.8
 2003/06/07, 8:30,24.6,60,25,21
 2003/06/07, 8:45,24.9,60,25,20.1
 2003/06/07, 9:00,25.1,59,25,18.4
 2003/06/07, 9:15,25.1,59,25.1,18.6
 2003/06/07, 9:30,25.2,58,25.1,18.8
 2003/06/07, 9:45,25.4,58,25.1,18.9
 2003/06/07,10:00,25.9,57,25.2,19.1
 2003/06/07,10:15,26.4,57,25.3,19.3
 2003/06/07,10:30,26.5,56,25.4,20.3
 2003/06/07,10:45,26.6,55,25.5,20.5
 2003/06/07,11:00,26.8,54,25.7,20.6
 2003/06/07,11:15,26.6,52,25.7,20.8
 2003/06/07,11:30,26.7,51,25.8,20.9
 2003/06/07,11:45,27.1,47,26,21
 2003/06/07,12:00,27.2,43,26.1,21.2
 2003/06/07,12:15,27.3,44,26.1,21.3
 2003/06/07,12:30,27.5,45,26.1,21.4
 2003/06/07,12:45,27.3,43,26,21.6
 2003/06/07,13:00,27.4,42,26,21.7
 2003/06/07,13:15,27.6,46,26,18.3
 2003/06/07,13:30,27.2,47,26.1,18.4
 2003/06/07,13:45,27.1,47,26.1,18.6
 2003/06/07,14:00,27.1,50,26.2,19.5
 2003/06/07,14:15,26.9,51,26.1,19.7
 2003/06/07,14:30,27,52,26.2,19.8
 2003/06/07,14:45,27.2,53,26.2,20
 2003/06/07,15:00,27.2,54,26.3,20.1
 2003/06/07,15:15,27.2,54,26.4,21.3
 2003/06/07,15:30,27.2,54,26.4,21.4
 2003/06/07,15:45,27.2,54,26.4,21.6
 2003/06/07,16:00,27.2,54,26.5,21.7
 2003/06/07,16:15,27.2,54,26.5,21.8
 2003/06/07,16:30,26.3,52,26.4,21
 2003/06/07,16:45,26.2,52,26.3,21.1
 2003/06/07,17:00,25.1,50,26.1,21.3
 2003/06/07,17:15,24.7,50,25.9,21.4
 2003/06/07,17:30,24.7,47,25.7,21.6
 2003/06/07,17:45,25.2,50,25.7,21.7
 2003/06/07,18:00,24.9,53,25.7,21.8
 2003/06/07,18:15,24.9,52,25.7,22
 2003/06/07,18:30,25.9,51,25.8,22.1
 2003/06/07,18:45,26.2,52,25.8,20.3
 2003/06/07,19:00,26.5,56,25.8,20.5
 2003/06/07,19:15,26.8,59,25.9,20.7
 2003/06/07,19:30,26.9,59,25.9,20.9
 2003/06/07,19:45,27.1,59,25.9,19.2
 2003/06/07,20:00,27.1,56,26,19.4